{"data":{"norad_id":64415,"epoch":"2026-09-20T12:02:44.858112Z","epoch_age_seconds":134215,"freshness":"FRESH","line1":"1 64415U 25129D   26263.50190808  .00007036  00000+0  24896-3 0  9996","line2":"2 64415  70.0013 301.0613 0003394 271.8547  88.2239 15.29582852 70466","mean_motion":15.29582852,"eccentricity":0.0003394,"inclination_deg":70.0013,"raan_deg":301.0613,"arg_perigee_deg":271.8547,"mean_anomaly_deg":88.2239,"bstar":0.00024896,"rev_number":7046,"period_min":94.143314833658,"perigee_km":474.73172833194,"apogee_km":479.385034957,"semimajor_km":6855.1953816445,"source":"CELESTRAK","updated_at":"2026-09-21T09:00:35.346395Z"}}